Temp
81 80 78 77 76 76 76 76 77 77 77 77 78 77 76 76 75 75 74 74 73 71 72 72 71 70 67 67 66 67 68 68 66 64 64 64 64 66 69 66 68 66 65
81 80 79 79 78 77 77 77 77 76 77 77 78 77 77 76 76 74 74 76 73 70 70 71 71 73 67 66 66 67 68 67 64 61 61 62 63 64 64 64 69 73 65
82 80 80 79 79 79 80 80 76 76 76 76 77 76 76 76 76 76 75 75 73 71 71 70 69 69 69 66 65 66 63 65 62 61 60 61 62 63 62 64 64 62 66
82 80 79 79 80 81 80 77 76 76 76 75 76 77 77 77 76 76 76 74 72 71 72 70 70 68 69 67 66 65 62 61 62 61 60 61 61 62 62 61 60 59 61
76 76 76 79 78 78 77 77 78 77 78 78 76 75 76 77 79 77 77 73 71 72 71 71 70 70 72 70 67 64 61 59 59 60 59 59 59 60 60 59 59 57 58
70 71 71 76 77 79 79 79 78 78 78 77 77 79 76 80 75 74 74 73 73 70 70 71 70 70 70 70 70 69 66 61 59 59 58 59 59 59 59 58 57 56 57
70 71 69 71 72 75 76 75 75 75 75 75 76 77 77 77 70 70 72 72 70 68 69 69 68 71 68 68 68 68 68 68 67 62 60 59 59 61 60 57 56 56 56
69 69 71 69 68 67 68 69 70 70 71 72 73 75 71 67 66 67 69 72 71 71 70 69 67 66 66 66 64 63 63 63 63 66 62 62 62 61 62 62 59 58 58
67 68 70 69 68 67 66 67 67 67 68 68 69 67 67 67 64 65 68 70 70 70 69 69 68 67 66 65 63 62 60 60 64 64 65 65 65 65 64 60 57 57 55
66 67 68 69 67 66 66 66 66 66 68 66 66 66 67 67 63 64 66 67 67 66 67 68 67 67 63 63 63 61 59 59 61 61 61 62 62 62 66 61 58 56 54
67 67 67 68 68 67 65 64 64 64 64 65 64 65 67 67 65 62 63 67 67 66 67 67 67 63 60 60 62 62 65 64 64 64 62 58 58 59 60 58 59 59 56
69 69 69 69 67 67 66 66 63 62 63 62 62 62 64 65 62 61 60 64 66 67 67 67 67 61 58 59 62 63 62 65 66 63 62 57 57 58 60 59 59 58 60
67 67 68 71 70 69 68 69 66 66 67 65 62 62 65 65 65 60 60 61 63 67 67 65 62 58 57 60 62 63 63 67 63 60 62 58 59 62 61 60 60 61 62
67 68 68 67 67 67 68 68 66 66 67 67 66 67 66 64 65 65 64 64 62 64 63 63 62 62 61 63 62 63 65 64 67 65 61 60 60 60 59 59 62 63 61
68 67 65 65 66 66 64 61 63 61 61 67 68 68 67 66 64 62 62 65 64 62 61 61 60 60 60 60 61 61 61 62 62 61 64 63 62 63 64 64 63 60 59
66 65 62 64 63 65 65 62 54 55 54 52 49 55 65 57 54 52 51 52 54 54 62 61 60 60 60 60 60 60 61 62 61 62 63 64 64 64 63 63 63 60 57
67 64 61 62 62 62 62 64 65 61 53 53 50 49 48 50 50 48 47 48 49 54 62 62 61 60 60 60 60 60 60 61 62 63 64 63 61 62 62 62 60 60 57
66 61 64 64 62 62 62 64 67 64 64 63 54 50 47 46 46 46 46 53 59 58 63 62 61 61 61 60 61 61 61 60 59 59 60 62 62 63 62 61 59 57 54
66 65 66 66 64 62 62 63 64 65 66 65 60 55 50 46 45 45 46 60 62 62 62 62 62 61 61 62 62 62 61 60 58 57 61 62 62 62 61 59 56 55 54
66 65 65 64 64 64 64 65 64 64 65 65 62 61 57 56 60 59 60 60 59 62 62 60 61 61 60 60 61 60 58 58 58 61 61 62 63 61 59 59 57 55 53
65 65 64 65 65 65 66 65 65 63 63 63 64 63 54 61 61 61 61 62 62 62 62 62 61 61 60 60 59 58 60 59 59 59 60 60 60 58 57 56 56 55 53
66 66 64 65 64 64 64 64 65 64 63 63 63 61 51 62 61 60 60 62 62 63 63 62 61 58 57 57 58 60 59 59 60 60 60 60 58 57 56 55 54 53 53
66 66 64 63 63 60 62 62 63 62 62 62 63 62 58 61 61 61 61 61 60 60 62 61 58 59 58 61 61 61 60 60 60 60 60 61 60 56 56 55 53 51 51
66 66 65 63 63 61 61 62 62 59 65 65 65 64 62 62 63 63 62 60 58 58 59 59 60 60 60 60 61 61 61 62 62 60 59 58 56 54 55 53 53 53 52
66 65 64 63 62 63 64 64 64 66 66 66 66 65 64 63 61 61 59 58 57 57 59 61 60 61 62 61 61 62 52 45 53 51 57 57 57 57 55 55 53 53 52
67 67 65 64 64 65 64 63 63 65 66 68 66 65 64 62 61 60 58 57 56 56 57 61 61 62 62 60 60 50 40 41 49 45 57 57 56 55 54 55 55 53 52
MSLP
1013.08 1013.48 1013.92 1014.14 1014.32 1014.65 1014.96 1015.18 1015.37 1015.58 1015.70 1015.74 1016.02 1016.44 1016.72 1017.08 1017.22 1017.44 1017.83 1018.08 1018.24 1018.29 1018.26 1018.41 1018.67 1018.82 1019.13 1019.26 1019.30 1019.39 1019.57 1019.61 1020.08 1020.57 1020.53 1020.46 1020.95 1021.22 1021.23 1021.65 1021.86 1021.93 1021.95
1012.10 1012.74 1013.19 1013.53 1013.81 1014.10 1014.36 1014.52 1014.71 1014.92 1015.17 1015.32 1015.70 1016.14 1016.29 1016.61 1016.98 1017.41 1017.63 1017.57 1017.78 1018.11 1018.24 1018.31 1018.39 1018.57 1018.92 1019.02 1019.22 1019.55 1019.50 1019.37 1019.68 1020.35 1020.70 1020.82 1020.99 1021.25 1021.36 1021.50 1021.62 1021.53 1021.79
1011.45 1012.19 1012.68 1012.98 1013.14 1013.28 1013.52 1013.85 1014.17 1014.36 1014.64 1015.09 1015.44 1015.75 1015.97 1016.17 1016.39 1016.74 1016.84 1016.98 1017.51 1017.98 1018.14 1018.23 1018.33 1018.54 1018.97 1019.12 1019.22 1019.38 1019.54 1019.56 1019.58 1019.75 1020.51 1020.66 1020.81 1021.19 1021.59 1021.59 1021.55 1021.66 1021.65
1011.18 1011.71 1012.30 1012.42 1012.45 1012.64 1013.05 1013.47 1013.71 1013.80 1014.09 1014.68 1015.09 1015.23 1015.53 1015.83 1016.08 1016.18 1016.27 1016.76 1017.67 1018.03 1018.09 1018.52 1018.53 1018.38 1018.49 1018.95 1019.12 1019.43 1019.63 1019.74 1019.93 1020.25 1020.51 1020.87 1021.12 1021.17 1021.18 1021.70 1022.13 1022.00 1021.84
1012.50 1012.87 1012.59 1012.35 1012.63 1012.97 1013.09 1013.05 1013.16 1013.36 1013.30 1013.51 1014.03 1014.42 1014.87 1015.09 1015.19 1015.41 1015.64 1016.27 1016.84 1017.04 1017.11 1017.81 1017.81 1017.97 1017.96 1018.39 1018.95 1019.42 1019.85 1020.05 1020.13 1020.32 1020.65 1020.90 1021.09 1021.22 1021.38 1021.53 1021.80 1021.88 1021.85
1013.30 1013.64 1013.71 1013.32 1012.28 1012.09 1012.06 1012.01 1012.19 1012.29 1012.72 1012.87 1012.94 1013.39 1013.89 1013.96 1014.01 1014.42 1014.94 1015.17 1015.34 1016.15 1016.57 1016.69 1017.12 1017.34 1017.84 1018.00 1018.61 1018.84 1019.16 1019.69 1020.06 1020.49 1020.61 1021.00 1021.00 1021.08 1021.33 1021.59 1021.79 1022.05 1021.99
1012.23 1012.10 1012.55 1013.50 1013.69 1012.44 1012.13 1012.13 1012.07 1012.20 1012.12 1012.27 1012.26 1012.54 1012.97 1013.37 1013.76 1014.01 1014.02 1014.96 1015.92 1015.90 1017.44 1016.90 1017.03 1017.17 1017.62 1017.81 1018.46 1018.77 1019.02 1019.52 1019.56 1019.92 1020.24 1020.36 1020.53 1020.49 1020.85 1021.55 1021.66 1021.81 1021.69
1011.02 1012.44 1012.96 1013.51 1013.98 1013.45 1012.82 1012.31 1012.53 1012.63 1012.22 1012.36 1011.96 1012.07 1012.96 1013.66 1013.49 1013.40 1014.24 1015.13 1015.60 1017.15 1017.54 1017.16 1017.29 1017.05 1017.44 1017.70 1018.40 1018.91 1019.09 1019.32 1019.49 1019.65 1019.74 1019.67 1019.57 1019.78 1020.10 1020.70 1021.21 1021.52 1021.52
1013.12 1013.49 1013.48 1013.57 1013.89 1013.40 1012.84 1012.26 1012.16 1012.78 1012.72 1012.47 1012.34 1012.41 1012.81 1013.23 1012.85 1012.74 1013.16 1014.44 1014.91 1015.16 1016.38 1017.01 1016.87 1017.12 1017.28 1017.85 1018.36 1019.09 1019.46 1019.71 1019.60 1019.49 1019.52 1019.36 1019.45 1019.50 1019.78 1020.44 1021.39 1021.79 1021.92
1013.42 1013.56 1013.57 1013.59 1013.60 1013.46 1012.96 1012.73 1012.57 1012.59 1012.50 1012.43 1012.24 1011.82 1011.76 1012.20 1012.12 1011.79 1011.59 1012.56 1014.05 1013.49 1015.35 1016.29 1016.51 1016.74 1016.76 1017.55 1018.06 1018.70 1019.04 1019.37 1019.23 1019.46 1019.91 1020.08 1020.23 1020.11 1019.68 1020.05 1020.83 1021.32 1021.70
1013.20 1013.38 1013.20 1013.01 1012.87 1012.71 1012.87 1013.22 1012.88 1012.82 1013.03 1013.08 1012.71 1012.79 1012.62 1012.29 1012.23 1011.67 1011.30 1010.29 1010.77 1011.85 1014.98 1015.79 1016.56 1016.49 1016.65 1017.13 1017.53 1018.21 1018.40 1018.81 1019.25 1019.41 1019.60 1020.08 1020.35 1020.25 1020.39 1020.14 1020.26 1020.55 1021.02
1012.13 1012.16 1012.27 1012.35 1012.51 1012.49 1012.29 1012.41 1012.74 1012.98 1012.92 1012.87 1012.42 1012.44 1012.66 1012.66 1012.73 1012.64 1011.55 1011.09 1010.50 1012.65 1014.96 1015.67 1015.99 1015.96 1016.09 1016.62 1017.16 1017.50 1018.01 1018.30 1019.03 1019.55 1019.76 1020.15 1020.43 1020.48 1020.26 1020.20 1020.14 1020.44 1020.41
1011.72 1011.92 1012.03 1011.97 1012.03 1012.20 1012.44 1012.31 1012.52 1013.05 1013.08 1012.68 1012.37 1012.54 1012.39 1012.36 1011.88 1012.05 1012.00 1012.44 1011.85 1013.47 1014.77 1015.32 1015.54 1015.52 1016.03 1016.57 1017.09 1017.26 1017.71 1018.29 1018.94 1019.55 1019.51 1019.63 1019.73 1019.64 1019.73 1019.86 1019.87 1020.22 1020.36
1011.99 1012.41 1012.50 1012.36 1012.31 1012.30 1012.20 1012.19 1012.81 1013.09 1012.83 1012.69 1012.46 1012.40 1012.36 1012.60 1012.45 1012.63 1012.98 1013.11 1013.46 1014.17 1014.85 1015.29 1015.40 1015.71 1016.10 1016.22 1016.83 1017.10 1017.32 1017.87 1018.34 1018.79 1019.32 1019.23 1018.93 1019.31 1019.58 1019.65 1019.90 1020.03 1020.56
1012.25 1012.56 1012.78 1012.88 1012.64 1012.52 1012.56 1012.54 1012.46 1012.91 1012.99 1012.69 1012.38 1012.24 1012.23 1012.39 1012.55 1012.56 1012.90 1013.57 1013.90 1014.14 1014.84 1015.33 1015.72 1015.89 1016.03 1016.20 1016.73 1017.17 1017.48 1018.15 1018.39 1018.90 1018.84 1019.02 1019.17 1018.96 1019.13 1019.25 1019.66 1020.16 1020.59
1012.09 1012.57 1012.75 1012.88 1012.75 1012.78 1012.57 1012.56 1012.61 1012.78 1013.12 1013.21 1012.41 1012.39 1012.08 1012.18 1012.07 1012.81 1012.83 1013.56 1014.10 1014.34 1014.71 1015.03 1015.32 1015.53 1015.79 1016.07 1016.37 1017.10 1017.75 1018.21 1018.36 1018.49 1018.87 1018.67 1018.96 1019.11 1019.55 1019.36 1019.46 1020.00 1020.38
1012.44 1012.90 1012.97 1012.87 1012.78 1012.91 1013.06 1013.29 1012.24 1012.58 1012.64 1012.55 1012.82 1012.68 1012.68 1012.57 1012.44 1012.86 1012.86 1013.53 1013.92 1013.91 1014.13 1014.43 1014.68 1015.16 1015.62 1015.89 1016.27 1016.90 1017.42 1017.78 1018.20 1018.38 1018.39 1018.51 1018.72 1018.85 1019.34 1019.28 1019.49 1019.91 1020.45
1012.50 1012.72 1012.52 1012.19 1011.92 1012.82 1013.91 1013.67 1012.99 1012.95 1013.07 1012.77 1012.48 1012.98 1013.12 1013.52 1013.89 1013.44 1013.72 1013.99 1014.28 1014.15 1013.96 1014.22 1014.45 1014.97 1015.31 1015.61 1016.16 1016.72 1017.21 1017.74 1018.19 1018.56 1018.83 1018.86 1018.49 1018.79 1019.01 1019.24 1019.63 1020.08 1020.62
1012.08 1011.94 1011.12 1011.63 1012.78 1013.00 1013.33 1013.55 1013.32 1013.00 1013.23 1013.24 1012.93 1013.30 1013.40 1013.69 1013.87 1013.84 1013.92 1013.98 1013.97 1013.90 1013.97 1014.15 1014.43 1014.73 1015.07 1015.61 1016.00 1016.44 1016.90 1017.55 1018.22 1018.73 1018.67 1018.58 1018.26 1018.63 1018.97 1019.25 1019.63 1020.36 1020.73
1012.00 1011.62 1011.92 1012.10 1012.28 1012.13 1012.06 1012.26 1012.79 1012.49 1011.68 1011.84 1012.75 1013.32 1013.48 1014.03 1014.12 1014.02 1013.96 1013.75 1013.71 1013.82 1013.83 1014.12 1014.16 1014.53 1014.79 1015.08 1015.80 1016.29 1016.99 1017.62 1018.13 1018.20 1018.32 1018.18 1018.27 1018.62 1018.91 1019.24 1019.75 1020.33 1020.44
1012.31 1012.27 1012.06 1011.99 1011.91 1011.52 1011.29 1011.59 1011.59 1012.03 1012.44 1012.62 1012.34 1012.45 1012.76 1013.59 1013.95 1013.73 1013.70 1013.64 1013.56 1013.67 1013.84 1013.77 1014.09 1014.39 1014.65 1014.92 1015.46 1015.92 1016.84 1017.20 1017.65 1017.79 1017.68 1018.04 1018.74 1019.10 1018.86 1019.11 1019.60 1019.92 1020.23
1011.43 1011.42 1011.78 1011.97 1011.98 1012.13 1011.90 1011.72 1011.65 1012.08 1012.23 1012.34 1012.34 1012.32 1012.74 1013.24 1012.93 1013.24 1013.41 1013.35 1013.29 1013.32 1013.30 1013.56 1014.08 1014.56 1015.04 1015.11 1015.55 1016.10 1016.91 1017.17 1017.52 1017.43 1017.99 1018.42 1018.80 1018.71 1018.89 1019.29 1019.73 1020.11 1020.29
1011.04 1011.20 1011.61 1011.82 1011.82 1012.29 1012.16 1011.94 1012.03 1012.37 1012.17 1012.02 1012.38 1012.83 1013.08 1012.69 1012.60 1012.89 1013.26 1013.27 1013.29 1013.56 1013.42 1013.77 1014.25 1014.75 1015.17 1014.98 1015.52 1016.18 1016.42 1016.81 1017.26 1017.59 1018.19 1018.57 1018.57 1018.59 1018.85 1019.47 1019.90 1020.23 1020.45
1011.10 1011.15 1011.28 1011.57 1011.80 1012.11 1011.95 1011.86 1011.98 1011.87 1011.72 1011.66 1011.68 1011.86 1012.06 1012.04 1012.22 1012.57 1012.99 1013.31 1013.31 1013.52 1013.80 1014.17 1014.40 1014.25 1014.88 1015.56 1015.94 1016.35 1016.64 1016.68 1017.05 1017.52 1018.01 1018.31 1018.51 1018.68 1018.95 1019.49 1019.92 1020.25 1020.49
1011.06 1011.03 1010.86 1011.08 1011.38 1011.72 1011.49 1011.05 1010.88 1010.81 1010.75 1010.97 1011.22 1011.38 1011.71 1012.03 1012.21 1012.51 1012.90 1013.24 1013.35 1013.50 1013.83 1014.12 1014.29 1014.52 1014.93 1015.66 1016.18 1016.50 1016.72 1016.80 1017.05 1017.31 1017.56 1017.88 1018.18 1018.52 1018.96 1019.48 1019.95 1020.35 1020.54
1011.14 1011.10 1010.92 1010.88 1011.10 1011.05 1011.19 1011.44 1011.20 1010.83 1010.27 1010.13 1010.57 1010.80 1011.30 1011.57 1011.87 1012.27 1012.72 1013.15 1013.55 1013.73 1013.99 1014.24 1014.44 1014.73 1015.16 1015.75 1016.21 1016.53 1016.74 1016.97 1016.85 1017.01 1017.15 1017.64 1018.01 1018.62 1018.97 1019.39 1019.97 1020.24 1020.39
Wind_Speed
13 11 9 9 8 7 7 6 7 5 6 7 8 8 7 7 7 6 6 5 7 5 4 5 5 4 2 3 2 1 1 2 3 1 1 2 3 5 4 3 3 4 4
15 13 13 11 9 9 9 8 7 7 7 7 7 7 8 7 7 6 6 7 7 7 5 6 6 3 4 3 3 3 2 2 4 4 1 2 3 4 4 4 3 4 4
14 13 12 11 12 12 12 10 7 7 6 6 7 8 7 7 8 7 9 7 6 6 6 4 5 5 3 2 3 3 2 0 1 4 3 1 2 2 2 1 1 1 3
13 12 12 12 13 12 10 8 8 7 7 7 6 7 8 7 6 7 8 6 3 4 5 9 6 7 7 6 4 4 3 3 3 3 3 2 1 0 3 3 1 2 3
3 3 3 6 6 7 7 8 9 8 9 9 8 7 7 8 8 9 8 6 8 9 8 9 6 7 9 8 5 5 4 2 2 2 2 2 2 2 4 2 3 0 2
9 8 8 9 7 11 12 12 11 11 11 9 11 11 10 10 13 15 10 8 6 5 6 7 6 8 9 10 9 10 8 6 4 3 2 3 3 3 3 3 3 2 1
11 11 13 9 13 7 6 7 7 6 5 8 8 9 10 8 6 10 13 5 4 3 3 3 4 4 6 6 7 8 7 6 6 6 5 6 5 7 6 3 2 2 3
10 16 12 2 4 5 5 3 2 2 4 2 2 5 7 3 5 5 4 4 7 6 12 7 7 6 5 8 7 6 5 4 3 3 4 5 4 7 6 5 5 3 2
4 5 5 5 6 4 5 4 4 3 2 3 5 6 7 6 8 13 15 10 7 12 11 7 5 6 8 10 7 7 5 1 2 4 5 6 7 9 8 5 2 3 1
3 5 5 6 7 7 5 3 1 2 2 4 7 8 11 11 16 19 14 8 11 8 5 5 10 8 13 14 8 8 7 5 5 4 2 2 2 2 8 4 5 3 2
5 6 6 5 5 4 5 3 3 3 5 5 5 4 5 3 9 15 15 7 8 13 6 6 6 11 14 14 11 7 8 7 7 5 4 2 1 2 3 3 5 4 4
1 5 2 0 2 1 3 3 2 5 5 7 5 3 2 2 5 10 4 7 15 10 6 6 7 14 15 15 10 11 11 10 4 3 3 2 2 3 5 5 5 5 3
2 4 5 5 4 4 5 5 3 4 6 6 5 2 1 3 2 10 10 7 14 8 5 6 9 12 13 11 10 12 10 5 5 4 4 3 4 5 2 2 2 3 3
3 4 2 4 3 4 4 3 3 3 3 3 4 4 2 1 1 5 5 5 10 7 6 3 4 6 6 5 5 5 4 4 6 5 3 3 3 2 4 3 3 2 2
2 2 3 3 1 3 3 2 1 3 1 2 2 2 3 4 5 8 9 6 5 6 7 3 2 2 4 4 4 4 4 1 4 3 3 1 1 2 2 3 2 2 3
3 3 1 2 2 2 2 3 6 6 9 9 11 4 2 5 9 10 11 9 9 13 3 3 3 4 5 6 7 6 4 5 3 3 1 3 3 3 2 1 2 3 3
3 2 2 1 1 2 4 5 3 2 7 11 10 12 13 6 5 4 6 7 8 10 3 4 4 5 4 5 5 4 6 4 3 3 3 4 4 4 2 2 3 2 2
8 6 3 4 3 2 3 5 5 4 4 5 6 7 10 11 8 5 8 8 2 2 2 4 4 5 4 5 6 5 3 4 3 2 3 4 4 4 2 3 3 3 3
8 5 5 2 3 2 5 4 2 3 5 7 4 1 4 7 6 6 1 1 2 3 3 3 3 4 5 6 5 5 5 4 5 4 4 3 4 3 2 2 4 4 4
4 8 6 3 4 4 3 4 4 3 6 8 3 3 2 3 2 2 2 1 1 1 3 3 4 5 5 5 5 4 5 4 4 4 4 2 4 1 3 3 4 4 4
3 2 5 3 4 2 4 7 6 5 1 2 5 4 9 6 5 3 3 3 3 3 4 3 3 3 3 4 5 5 5 5 5 5 4 5 2 3 3 4 4 3 4
2 3 4 4 4 1 4 3 4 3 2 4 3 4 13 5 4 4 4 3 3 3 3 3 3 3 4 5 6 7 6 5 4 4 4 3 4 4 4 4 3 3 3
3 3 4 3 2 2 3 4 4 3 4 4 5 4 6 6 4 4 5 4 4 3 2 4 5 4 4 6 6 5 7 6 4 4 4 3 4 4 4 4 5 4 3
2 4 5 4 3 4 4 4 4 7 5 5 4 4 5 5 5 6 5 4 3 3 4 4 5 9 7 5 2 3 3 4 3 2 5 3 4 5 5 5 5 5 4
3 3 5 2 2 4 1 2 3 4 5 5 6 5 4 3 5 5 4 4 4 4 5 4 4 7 9 8 6 6 5 2 5 7 5 6 7 8 7 7 5 3 4
0 4 4 4 2 3 3 2 4 5 5 2 5 5 5 5 4 4 4 4 4 4 5 5 6 9 9 6 7 8 7 2 2 7 7 6 7 6 6 8 8 4 6
Wind_Direction
197 194 193 200 198 193 205 214 222 207 207 188 192 195 203 200 215 196 195 198 202 216 239 195 175 158 120 101 113 105 55 150 149 340 43 143 120 165 176 200 194 205 217
195 193 200 196 193 196 211 216 214 208 208 204 191 200 209 198 207 207 212 204 196 211 217 191 193 165 149 156 151 153 187 189 150 156 115 105 128 190 186 195 206 204 206
188 192 199 200 198 207 215 214 209 221 211 200 187 199 214 207 201 202 215 216 196 205 218 221 207 183 169 166 165 155 168 266 145 138 137 145 107 146 157 136 206 252 231
190 187 198 203 204 208 209 195 207 208 203 201 205 209 212 218 210 210 220 220 125 140 80 281 231 202 175 181 166 173 176 133 122 98 75 101 105 168 101 147 256 267 255
72 23 241 187 199 210 209 206 217 208 219 206 203 210 199 203 209 214 215 160 156 171 166 225 223 217 192 176 160 180 162 134 123 143 130 140 169 146 187 186 191 130 295
73 43 4 307 226 212 210 213 211 206 213 201 207 213 207 224 218 203 191 189 179 152 174 201 209 190 199 173 182 168 167 156 162 157 159 189 206 182 146 173 156 131 204
105 44 348 298 310 250 234 244 235 230 195 212 218 212 216 223 242 229 189 162 114 356 234 179 203 180 171 160 162 156 167 181 169 165 174 199 174 184 148 169 172 147 204
138 176 204 51 284 326 353 27 33 273 137 155 170 175 111 84 150 161 193 132 117 276 262 222 218 173 193 156 146 146 144 134 145 179 188 185 181 155 153 163 160 135 322
129 165 172 185 216 189 185 156 171 200 191 153 148 143 133 141 174 159 136 149 166 185 229 213 213 206 195 159 147 153 131 0 349 246 189 174 155 146 141 106 96 93 4
178 175 191 211 212 215 224 243 350 285 226 175 171 173 165 160 181 179 171 165 180 127 131 220 243 206 172 170 158 160 155 190 154 117 84 48 70 139 143 139 158 132 144
172 188 230 248 233 249 250 235 249 268 287 290 286 314 299 224 206 185 197 140 144 119 173 204 223 191 174 171 157 167 178 156 186 172 172 161 252 234 244 188 178 147 149
339 342 338 69 222 242 306 303 241 246 253 274 271 305 277 279 164 242 125 95 115 116 188 215 208 184 170 170 165 173 157 155 165 181 187 208 207 233 235 221 200 218 221
302 286 316 336 326 290 270 270 239 220 243 254 271 266 306 309 237 117 99 104 108 133 167 194 176 173 171 171 175 175 154 164 166 174 205 208 205 230 221 232 238 222 244
262 309 294 232 252 241 249 267 243 204 252 258 253 262 183 201 87 143 133 106 108 118 137 101 109 152 153 159 158 160 139 163 180 181 200 241 276 178 222 174 206 162 102
69 63 50 29 301 177 196 230 190 95 284 272 255 243 169 177 184 177 168 173 175 161 123 125 125 111 149 138 157 149 123 204 169 182 194 197 188 146 207 173 125 124 184
75 40 34 109 33 327 259 180 63 61 64 38 17 8 314 352 144 169 173 179 166 149 137 167 175 165 176 172 172 162 178 190 206 207 184 145 179 129 174 151 134 161 150
71 92 8 4 45 328 314 317 104 73 107 82 49 38 24 31 63 178 172 170 176 154 162 178 174 171 169 159 150 171 178 174 145 180 186 182 161 127 165 155 129 125 107
88 132 162 257 164 97 12 7 22 33 11 329 42 56 28 22 24 44 138 136 107 303 150 171 167 164 164 163 167 168 154 128 90 243 207 182 158 154 114 136 148 143 142
141 176 187 175 25 114 147 106 38 103 103 282 314 49 60 34 44 93 358 36 182 179 164 156 145 153 164 171 162 143 132 157 184 178 188 175 111 126 149 170 159 155 167
210 250 61 105 239 218 143 141 170 172 165 241 205 217 110 36 312 261 252 289 319 205 173 168 162 165 170 160 153 137 125 140 157 161 148 127 49 146 164 182 160 168 202
232 170 159 191 199 219 179 197 190 203 226 241 243 184 165 175 215 210 219 226 202 190 186 176 165 166 150 143 135 131 140 139 160 164 113 88 344 230 161 141 171 170 134
280 193 169 196 178 186 322 262 220 201 233 217 262 290 161 191 195 190 217 221 210 211 179 157 147 152 156 140 136 135 143 144 147 107 121 198 239 170 146 123 129 141 142
141 160 160 190 194 126 229 255 260 192 216 239 235 181 189 204 187 180 196 206 195 205 139 134 142 138 153 141 129 159 149 154 168 151 170 255 192 149 129 130 132 116 127
156 191 199 186 207 187 199 179 236 243 215 213 207 221 180 190 200 183 171 180 163 149 148 148 150 130 113 94 97 106 107 120 132 219 219 226 191 144 116 114 124 130 129
180 231 264 188 205 205 150 52 353 283 230 172 195 194 187 177 145 153 160 164 155 145 147 143 133 144 141 139 155 169 144 121 235 225 190 159 153 132 136 132 135 131 131
75 253 252 286 267 316 84 38 335 333 359 345 166 174 166 156 156 148 149 148 150 142 146 154 149 142 141 159 168 151 119 163 229 179 139 141 122 112 130 132 141 148 139